Voltar ao catálogo

STARLINK-36306

AtivoComunicaçõesSSO
NORAD 68160·PAYLOAD·🇺🇸 United States

Lançado Mar 13, 2026 de Vandenberg Space Force Base

Loading…

Próximas Passagens (próximas 24 horas)

TLE

AtualizadoSource: CelesTrak SupGP

Época: Sep 14, 2026, 22:36 UTC

1 68160C 26049U   26257.94215278  .00068723  00000+0  21347-2 0  2573
2 68160  97.2838 277.9528 0001857  86.6061  57.5133 15.33383051    15

Acompanhe STARLINK-36306 em tempo real com AllMySat

Download on the App Store